STARLINK-1297, 45395

Orbit data source: Space-Track

STARLINK-1297, 45395 is a payload satellite owned by SpaceX/Seattle (US) in LEO that was launched on Wed, 18 Mar 2020 UTC via an FALCON 9 launch vehicle from the Air Force Eastern Test Range (AFETR). Payload-class satellites include a variety of spacecraft equipped with specific instruments for various scientific and technological missions. These include communications satellites like Starlink; space stations such as the ISS; scientific satellites like the Hubble; Earth observation satellites from companies like Planet Labs, Umbra, and HawkEye 360; GPS; miniature CubeSats for education and research; and military/defense satellites.

Loading next visibility...
Identifier
45395, 2020-019AM
Orbit
LEO
Last TLE update
16 hours ago
Origin
Manufacturer
SpaceX/Seattle
Mission
Operational Commercial Communications
Bus & Motor
STARLINK, Unknown motor
Mass
260 kg wet, ~248 kg dry
Launch date (UTC)
2020-03-18 (5 years ago)
Launch vehicle
FALCON 9
Launch site
Air Force Eastern Test Range (AFETR)
Object type
Payload
Rocket body
Debris
Shape & HBR
Box + 1 Pan, 8.86 m
Radar Cross Section
13.562 m², Large (>1 m²)

Expand to show TLE details & history

TLE from 16 hours ago
0 STARLINK-1297
1 45395U 20019AM  25181.73781911 -.00001623  00000-0 -90083-4 0  9990
2 45395  53.0538 197.6741 0001266  78.3751 281.7380 15.06391853291218
Epoch: 2025-06-30T17:42Z
TLE epoch observation values (Epoch: 2025-06-30T17:42:27.571Z)
Latitude
-0.00001°
Longitude
13.01589°
Altitude
547.937 km
Speed
7.589 km/s
True Right ascension
13h 10m 41s
True Declination
0° 00' 00"
Sunlit
Object was in daylight at epoch
Visualization orbit readout
Latitude
44.86392°
Longitude
141.82964°
Altitude
551.199 km
Speed
7.592 km/s
Apparent Right ascension
17h 44m 51s
Apparent Declination
87° 02' 15"
Sunlit
Object is in daylight
Visualization observer readout
Local Sidereal Time
21:47:37
Azimuth
356.56° N
Elevation
41.316°
Doppler factor
1
Orbital elements
Apogee altitude
548.384 km
Perigee altitude
546.631 km
Semi-major axis
6,925.644 km
Eccentricity
0.00013
Inclination
53.0538°
RAAN
197.6741°
Arg. of periapsis
78.3751°
True anomaly
Unknown
Mean anomaly
281.738°
Eccentric anomaly
Unknown
Mean motion
3.76576 °/min
Orbital period
95.6 mins
BSTAR
-0.000090083
Loading maneuver chart data...
Loading SW <> Apogee altitude chart data...
Loading historical data...
Loading historical data...
Loading historical data...
Loading historical data...
Loading historical data...
Loading historical data...
Loading historical data...

STARLINK-1297 Visibility forecast

Observer location: undefined°, undefined°

Span
Click to sort rows by Start time (UTC) header in descending order
Start Az.
Max El. time (UTC)
Max El. Az.
Max El.
End time (UTC)
End Az.
4 mins2025-07-01 10:09:13.184Z356.499° N2025-07-01 10:10:13.184Z43.772° NE36.78°2025-07-01 10:13:13.184Z106.656° ESE
5 mins2025-07-01 11:47:13.184Z272.065° WNW2025-07-01 11:49:13.184Z233.568° WSW21.911°2025-07-01 11:52:13.184Z180.609° SSW
6 mins2025-07-02 03:20:13.184Z210.275° SW2025-07-02 03:22:13.184Z140.56° SSE42.003°2025-07-02 03:26:13.184Z55.778° ENE
5 mins2025-07-02 05:00:13.184Z295.869° NW2025-07-02 05:02:13.184Z338.795° N22.981°2025-07-02 05:05:13.184Z29.519° NE
4 mins2025-07-02 08:22:13.184Z352.449° N2025-07-02 08:23:13.184Z10.106° NNE16.998°2025-07-02 08:26:13.184Z59.479° ENE
6 mins2025-07-02 10:01:13.184Z319.792° NNW2025-07-02 10:04:13.184Z72.882° E40.608°2025-07-02 10:07:13.184Z117.938° SE
|